カタログに戻る

COSMOS 2449

GLONASS

運用中ナビゲーションMEO
NORAD 33467·PAYLOAD·🇷🇺 Russia

打ち上げ Dec 25, 2008 から Baikonur Cosmodrome

Loading…

次のパス (今後24時間)

TLE

最新Source: Space-Track

元期: Sep 10, 2026, 07:02 UTC

1 33467U 08067B   26253.29307247  .00000011  00000-0  00000-0 0  9998
2 33467  64.8656  66.3346 0032943 235.4620 124.2631  2.13096687137777

AllMySatでCOSMOS 2449をリアルタイム追跡

Download on the App Store